Temperature
15 14 13 12 10 8 6 4 3 2 1 0 -0 -1 -2 -2 -3 -4 -4 -5 -6 -7 -7 -8 -8 -9 -9 -9 -10 -10 -11 -12 -13 -12 -12 -12 -11 -11 -10 -10 -10 -10 -10
15 14 13 11 10 8 6 5 3 2 1 0 -0 -1 -2 -2 -3 -4 -4 -5 -6 -7 -7 -8 -8 -9 -9 -9 -10 -10 -11 -12 -12 -13 -12 -12 -11 -11 -11 -11 -11 -11 -11
14 13 12 11 10 9 7 5 3 2 1 0 -1 -1 -2 -2 -3 -4 -4 -5 -6 -7 -7 -8 -8 -9 -9 -9 -10 -10 -11 -11 -12 -12 -12 -12 -12 -11 -11 -11 -11 -11 -11
14 13 13 12 11 9 7 5 3 2 1 0 -1 -1 -2 -2 -3 -4 -4 -5 -6 -6 -7 -8 -9 -9 -9 -9 -10 -10 -10 -11 -11 -11 -12 -12 -11 -11 -11 -12 -12 -12 -12
14 14 13 12 10 8 6 4 3 1 1 -0 -1 -1 -2 -2 -3 -4 -4 -5 -6 -6 -7 -8 -9 -9 -9 -9 -9 -9 -10 -10 -10 -11 -11 -11 -11 -11 -11 -12 -12 -12 -12
14 14 13 11 10 8 6 4 2 1 0 -0 -1 -1 -2 -2 -3 -4 -5 -6 -6 -7 -8 -8 -9 -9 -9 -9 -10 -10 -10 -10 -10 -10 -10 -11 -11 -11 -12 -12 -12 -12 -12
13 13 12 11 9 8 5 3 2 1 0 -1 -1 -2 -2 -3 -3 -4 -5 -6 -7 -8 -8 -8 -9 -9 -9 -9 -9 -9 -9 -9 -10 -10 -10 -11 -11 -11 -11 -12 -12 -12 -12
12 12 12 10 9 6 3 2 1 0 -0 -1 -1 -2 -2 -3 -3 -4 -5 -6 -6 -7 -7 -8 -9 -9 -9 -9 -9 -9 -9 -9 -10 -10 -11 -11 -11 -11 -11 -11 -11 -12 -12
11 11 10 9 7 5 3 2 1 -0 -0 -1 -1 -2 -2 -3 -4 -4 -5 -5 -6 -6 -7 -8 -9 -9 -9 -9 -9 -9 -9 -9 -9 -10 -11 -11 -11 -12 -12 -12 -12 -12 -12
10 9 8 7 6 5 4 2 0 -1 -1 -1 -2 -2 -3 -3 -4 -4 -5 -5 -6 -6 -7 -8 -9 -9 -9 -9 -9 -9 -9 -9 -10 -10 -11 -11 -12 -13 -13 -13 -13 -13 -13
8 8 7 7 5 4 2 1 -0 -1 -1 -2 -2 -2 -3 -3 -4 -4 -5 -5 -6 -7 -8 -8 -8 -9 -9 -9 -9 -9 -10 -9 -10 -10 -11 -12 -12 -13 -13 -13 -13 -13 -13
7 7 7 6 4 3 1 -0 -1 -2 -2 -2 -2 -2 -3 -3 -4 -4 -5 -5 -7 -8 -8 -8 -9 -9 -9 -9 -10 -10 -10 -10 -10 -11 -11 -12 -12 -13 -13 -13 -13 -13 -13
6 6 6 5 4 2 0 -1 -2 -2 -3 -2 -2 -2 -3 -3 -4 -4 -5 -5 -6 -8 -8 -8 -9 -9 -9 -9 -9 -10 -10 -10 -11 -11 -12 -12 -12 -12 -12 -12 -12 -12 -12
6 5 5 4 2 1 -1 -2 -2 -2 -2 -2 -2 -2 -3 -3 -4 -4 -5 -5 -6 -7 -7 -8 -8 -9 -9 -9 -10 -10 -10 -10 -11 -11 -12 -12 -12 -12 -12 -12 -12 -12 -11
5 5 4 3 1 -0 -1 -2 -2 -2 -1 -2 -2 -2 -3 -3 -3 -4 -5 -5 -6 -7 -8 -8 -8 -9 -9 -9 -9 -10 -10 -10 -11 -11 -11 -12 -12 -12 -12 -12 -12 -11 -11
4 4 3 2 0 -1 -2 -3 -3 -3 -3 -3 -3 -3 -3 -3 -4 -4 -5 -6 -7 -8 -8 -8 -8 -9 -9 -9 -10 -10 -10 -10 -11 -11 -11 -11 -12 -12 -11 -11 -11 -11 -10
3 3 2 1 -1 -2 -3 -3 -4 -4 -4 -4 -4 -3 -4 -4 -4 -5 -5 -6 -7 -7 -8 -8 -8 -9 -9 -9 -10 -10 -10 -10 -11 -11 -11 -11 -11 -11 -11 -11 -11 -10 -10
2 2 1 0 -1 -3 -3 -4 -4 -5 -5 -4 -4 -4 -4 -4 -5 -5 -6 -6 -7 -7 -7 -8 -8 -9 -9 -9 -10 -10 -10 -10 -10 -11 -11 -11 -11 -11 -11 -11 -11 -10 -9
1 1 0 -1 -2 -3 -4 -5 -6 -6 -6 -5 -4 -4 -4 -5 -5 -6 -6 -6 -6 -7 -7 -8 -8 -9 -9 -9 -9 -10 -10 -10 -10 -11 -11 -11 -11 -11 -11 -11 -10 -10 -9
1 0 -0 -1 -2 -4 -5 -6 -6 -7 -7 -6 -5 -4 -4 -5 -5 -6 -6 -6 -6 -7 -7 -7 -8 -8 -9 -9 -9 -10 -10 -10 -10 -10 -10 -11 -11 -11 -11 -10 -10 -10 -9
-0 -0 -1 -2 -3 -4 -5 -6 -7 -7 -7 -6 -5 -4 -4 -4 -4 -5 -5 -5 -6 -6 -7 -7 -8 -8 -9 -9 -9 -9 -10 -10 -10 -10 -10 -10 -10 -10 -10 -10 -10 -9 -9
-1 -1 -1 -2 -3 -5 -6 -6 -7 -8 -8 -7 -6 -5 -5 -5 -5 -5 -5 -5 -6 -7 -7 -7 -8 -8 -9 -9 -9 -9 -10 -10 -10 -10 -10 -10 -10 -10 -10 -10 -9 -9 -8
-1 -1 -2 -2 -4 -5 -6 -7 -8 -8 -8 -8 -7 -6 -5 -5 -4 -5 -5 -5 -6 -6 -7 -7 -8 -8 -8 -9 -9 -9 -9 -10 -10 -10 -10 -10 -10 -10 -10 -10 -9 -9 -8
-1 -2 -2 -2 -4 -5 -7 -7 -8 -8 -8 -8 -7 -6 -5 -5 -4 -4 -5 -6 -6 -6 -7 -7 -8 -8 -8 -9 -9 -9 -9 -10 -10 -10 -10 -10 -10 -10 -10 -10 -9 -9 -8
-2 -2 -2 -3 -4 -5 -7 -8 -8 -8 -8 -8 -7 -6 -5 -5 -4 -5 -5 -6 -6 -6 -7 -7 -8 -8 -8 -8 -9 -9 -9 -10 -10 -10 -10 -10 -10 -10 -10 -10 -9 -9 -9
-2 -2 -2 -3 -4 -5 -7 -8 -8 -8 -8 -8 -7 -6 -5 -5 -5 -5 -5 -6 -6 -6 -7 -7 -7 -8 -8 -8 -9 -9 -9 -9 -10 -10 -10 -10 -10 -10 -10 -10 -9 -9 -9
Wind_Speed
17 17 17 17 16 15 15 16 15 14 14 13 12 12 11 11 10 9 10 9 10 11 11 11 14 12 11 11 12 13 13 14 18 17 13 12 13 15 16 18 20 20 22
14 15 16 15 16 17 18 17 15 15 14 14 12 12 12 11 10 10 11 11 11 12 12 12 14 12 13 13 12 14 14 14 16 20 16 13 15 14 14 14 14 17 16
12 14 16 17 18 20 19 17 16 16 14 13 13 13 12 11 10 11 11 11 11 12 13 13 14 14 15 13 14 14 13 14 14 17 18 15 13 12 13 14 14 12 16
13 16 19 21 21 20 18 17 17 16 15 14 14 13 12 10 10 10 10 11 12 13 14 14 15 15 15 15 15 15 15 15 15 16 16 16 14 11 10 12 12 10 12
15 18 21 18 17 17 17 16 15 15 15 13 13 12 11 9 9 10 10 12 13 13 14 14 15 17 20 18 15 13 13 13 13 14 15 14 13 11 10 10 13 12 11
17 19 17 15 16 17 16 15 15 15 13 13 13 12 11 10 15 19 15 12 13 13 13 12 12 15 19 24 27 26 23 17 15 14 14 14 14 13 11 12 13 13 13
16 16 15 15 16 16 16 15 16 15 13 13 13 12 12 14 18 19 20 13 10 10 10 10 11 11 17 11 20 26 24 27 25 18 16 16 16 13 14 16 14 14 14
14 15 14 14 15 13 13 15 14 12 13 13 13 13 12 13 18 19 19 12 8 8 9 10 11 11 13 15 15 16 14 14 18 14 13 15 15 15 15 15 15 14 13
15 15 13 13 13 14 15 16 14 13 13 13 11 13 12 13 17 18 17 7 8 9 9 10 11 11 19 24 18 14 11 11 18 21 21 21 24 24 19 11 9 10 12
14 13 11 13 15 17 17 15 12 12 13 13 12 12 12 11 15 16 16 7 8 9 8 9 15 15 21 24 15 11 12 13 11 10 13 16 14 16 20 11 7 9 10
10 9 10 12 14 14 13 12 11 12 12 12 12 11 11 12 14 16 16 7 8 9 8 6 7 17 21 22 19 10 16 17 8 8 10 10 9 8 8 8 8 8 10
9 9 10 11 12 12 11 12 12 13 12 12 10 9 9 10 13 14 16 15 12 8 7 6 8 18 20 20 16 17 23 18 9 10 11 11 10 9 8 8 10 10 11
9 10 9 10 11 11 12 13 12 12 11 11 10 9 8 8 10 16 16 15 14 8 6 11 14 17 17 12 15 19 16 9 10 10 11 11 9 9 9 9 8 9 10
11 9 7 8 9 10 11 12 12 13 13 12 11 10 8 7 7 7 6 7 10 8 7 9 12 13 11 12 12 11 8 9 10 9 11 10 10 9 8 8 8 7 7
10 8 7 8 9 10 12 12 13 13 15 14 12 11 10 9 11 15 10 7 6 7 5 2 2 4 5 6 7 8 7 8 9 9 10 10 11 10 10 8 7 6 6
9 7 6 7 8 9 9 10 19 18 21 22 17 13 10 11 12 15 15 13 11 9 4 2 3 4 6 7 8 9 9 9 9 10 10 10 10 10 10 9 8 7 7
10 8 6 7 8 9 10 11 10 14 21 22 21 19 15 14 15 14 13 11 9 7 3 3 4 4 5 6 7 8 9 9 9 9 9 10 10 10 10 10 9 8 7
9 10 9 7 8 9 10 10 9 10 11 11 16 21 20 18 17 15 13 8 4 4 3 4 4 4 5 6 7 8 9 9 8 8 9 9 9 9 10 10 9 9 9
9 7 7 7 8 8 9 9 9 10 9 8 6 11 19 18 18 16 12 6 5 5 4 4 4 4 5 6 6 7 8 9 9 9 9 9 9 9 9 9 10 13 11
8 12 10 7 7 8 8 9 9 9 10 9 10 10 10 10 7 7 6 5 5 5 5 4 4 4 4 5 6 7 8 8 8 8 8 9 8 8 9 11 10 10 9
7 8 12 8 7 8 8 9 9 9 9 9 9 11 17 11 10 9 7 7 6 6 5 5 4 4 4 4 5 7 8 8 8 7 8 8 9 9 9 9 10 10 10
7 6 6 6 6 8 8 8 9 9 10 10 7 10 19 10 8 8 8 7 6 6 5 4 4 4 4 4 5 7 8 8 7 7 7 8 8 9 9 9 10 10 10
6 7 7 7 6 11 11 9 9 9 9 9 9 9 10 10 9 8 8 7 6 5 5 4 4 4 4 4 5 6 7 8 7 6 7 8 8 9 9 10 11 12 11
7 7 7 7 7 8 9 9 9 10 9 9 9 9 9 9 9 9 8 7 6 6 5 4 4 5 6 5 5 5 7 7 5 4 5 7 8 8 9 10 11 12 12
7 7 8 8 8 8 9 9 9 10 10 10 9 9 9 9 9 8 7 7 7 6 6 5 3 4 5 6 7 7 12 13 7 4 3 5 7 8 9 10 10 11 11
8 8 8 8 8 8 9 9 9 10 10 10 9 9 9 9 9 8 8 7 7 6 5 4 4 4 4 5 7 10 13 12 9 8 4 4 6 8 9 8 11 11 12
Wind_Direction
209 208 211 208 206 204 204 204 201 197 195 198 199 204 211 217 217 223 233 235 241 251 252 252 257 258 261 263 262 261 259 259 271 281 279 279 275 277 281 280 280 281 284
209 208 212 209 204 207 210 206 199 198 197 198 198 204 212 217 216 222 235 242 242 251 256 256 260 263 262 264 265 264 263 261 265 277 280 278 274 274 274 273 280 281 280
206 209 212 213 210 212 211 205 199 197 196 196 197 205 211 215 218 224 232 241 244 249 254 256 260 262 265 265 264 265 265 264 262 268 276 277 276 273 273 275 273 273 278
208 213 217 217 216 215 211 204 200 196 195 196 199 205 210 213 220 227 232 240 247 252 253 255 257 258 262 265 265 262 262 262 263 265 271 275 275 270 268 276 282 276 278
213 219 224 222 218 215 210 204 198 195 196 194 196 204 210 214 219 224 233 241 246 253 255 253 255 261 265 273 277 271 263 263 267 267 271 276 278 278 276 278 282 284 277
219 226 226 220 217 214 210 202 197 194 191 188 195 201 210 221 235 244 245 239 242 250 258 258 258 269 278 284 288 290 288 283 282 278 280 281 281 277 278 277 279 281 283
225 230 226 219 218 215 208 201 198 193 188 190 196 201 214 227 239 251 260 261 253 252 255 263 271 271 285 281 285 288 287 285 285 285 284 282 281 278 275 273 268 266 268
233 234 227 219 219 213 206 205 199 192 191 195 199 205 215 229 239 250 261 265 259 253 252 256 263 268 274 282 277 279 272 269 274 279 274 276 277 276 268 266 267 268 267
241 239 228 215 213 208 207 205 198 190 192 196 198 203 213 228 237 248 260 256 259 258 256 258 263 265 282 292 296 294 286 281 291 293 294 296 299 300 298 291 280 276 277
249 243 227 214 212 211 209 204 196 193 195 194 201 205 211 220 231 242 254 249 259 266 265 261 275 284 293 300 303 300 298 296 293 288 292 295 294 292 295 290 279 275 275
259 243 225 214 214 213 207 198 189 191 191 194 202 205 209 219 230 240 249 239 247 264 271 268 269 293 300 305 312 307 299 308 313 300 296 293 288 280 275 264 251 249 253
259 241 226 214 208 206 199 194 188 188 190 195 199 207 214 221 227 235 243 248 253 253 265 270 278 297 306 313 315 307 311 322 317 306 303 304 303 298 288 274 260 248 242
268 248 230 211 202 196 194 193 190 190 194 197 197 207 213 210 220 230 237 246 257 260 262 280 294 306 315 315 308 312 321 318 306 305 306 306 302 294 292 286 273 260 252
272 256 227 208 201 196 196 196 196 197 198 198 197 204 206 204 204 210 220 242 253 265 277 285 298 309 312 308 311 315 312 304 308 306 306 305 305 303 301 296 291 286 277
274 257 228 211 201 200 203 206 206 209 204 199 198 195 193 205 211 204 199 213 218 234 248 239 281 304 308 310 309 309 310 313 313 309 308 311 313 313 311 307 292 287 274
278 257 229 212 204 202 206 216 223 218 222 218 207 196 200 201 203 204 211 224 238 250 250 240 281 293 300 307 312 314 316 315 315 314 313 314 314 314 312 310 303 294 288
269 259 229 214 207 206 207 211 218 222 224 220 211 204 198 199 201 202 211 222 233 245 226 236 261 279 292 300 305 308 311 311 310 310 312 313 315 315 314 313 312 305 296
272 261 243 219 209 207 209 211 210 206 205 208 211 209 204 202 204 206 211 207 209 208 199 229 251 268 285 296 303 307 309 312 312 312 313 313 315 316 316 315 313 308 304
279 262 243 221 211 208 208 209 210 209 208 199 186 202 206 206 206 209 207 188 195 208 214 227 241 259 279 291 299 305 307 309 311 312 313 315 317 317 315 315 313 312 312
281 274 259 230 215 209 207 208 209 208 206 199 196 192 189 189 190 193 189 175 193 206 212 223 237 252 271 285 296 303 307 309 312 312 313 315 317 317 316 316 316 314 309
284 277 269 247 216 209 208 210 208 206 206 206 202 192 185 185 189 188 189 191 197 203 207 216 230 250 266 281 291 299 304 307 309 312 315 317 319 321 319 317 316 314 313
278 265 251 241 220 211 211 210 208 207 208 207 196 194 195 186 184 187 194 199 196 195 195 201 220 238 252 270 287 297 302 306 310 316 319 318 319 321 323 323 324 323 322
267 262 252 243 227 223 220 210 208 207 207 204 195 189 189 183 186 189 192 191 185 189 190 197 219 242 256 269 277 285 295 302 305 309 317 320 323 326 328 328 327 330 331
260 254 247 240 228 220 216 208 204 205 204 201 195 192 189 183 182 185 182 177 178 182 185 195 216 241 266 284 288 292 294 299 290 291 304 314 320 325 329 332 332 333 333
257 250 242 233 226 220 216 210 203 201 201 199 196 192 187 180 178 177 173 171 172 178 186 193 212 241 270 288 297 300 312 326 332 325 309 320 323 323 328 333 337 338 339
258 247 238 228 221 216 211 208 202 197 197 196 192 187 183 179 176 172 168 168 171 175 180 189 210 237 271 286 297 312 326 335 342 346 354 327 330 333 339 340 341 346 346
Height
1450 1449 1449 1448 1449 1450 1451 1453 1456 1458 1459 1460 1461 1462 1462 1462 1462 1461 1459 1457 1454 1452 1450 1447 1443 1441 1437 1433 1429 1424 1419 1413 1403 1394 1393 1388 1385 1382 1379 1376 1372 1367 1362
1442 1441 1440 1439 1439 1439 1440 1442 1445 1447 1449 1451 1452 1453 1454 1454 1454 1453 1451 1449 1447 1444 1441 1438 1435 1433 1429 1425 1420 1415 1410 1405 1398 1389 1384 1380 1377 1374 1370 1367 1363 1359 1355
1434 1432 1431 1429 1428 1428 1429 1431 1434 1436 1438 1441 1443 1444 1445 1446 1446 1445 1443 1441 1439 1436 1433 1430 1427 1425 1420 1417 1412 1407 1401 1397 1391 1384 1376 1372 1368 1365 1362 1358 1354 1350 1346
1427 1424 1421 1419 1417 1417 1418 1420 1423 1426 1428 1431 1433 1435 1437 1438 1438 1437 1435 1433 1431 1428 1425 1422 1420 1417 1412 1408 1403 1398 1393 1388 1383 1376 1369 1364 1360 1357 1354 1349 1345 1342 1337
1418 1415 1411 1409 1407 1407 1407 1409 1412 1415 1419 1423 1425 1427 1429 1429 1430 1429 1428 1425 1423 1420 1417 1414 1412 1409 1405 1401 1397 1391 1386 1380 1375 1369 1362 1357 1353 1350 1346 1342 1337 1332 1328
1410 1406 1403 1399 1397 1396 1396 1399 1402 1405 1409 1413 1417 1419 1421 1421 1422 1421 1419 1417 1415 1412 1409 1406 1404 1401 1398 1393 1389 1385 1381 1375 1368 1363 1356 1350 1345 1342 1338 1334 1330 1325 1320
1402 1398 1394 1390 1387 1386 1387 1388 1391 1396 1400 1404 1408 1410 1412 1414 1414 1413 1412 1410 1408 1405 1402 1399 1396 1393 1390 1385 1380 1375 1371 1367 1363 1357 1349 1343 1337 1333 1329 1324 1321 1317 1313
1394 1390 1386 1381 1378 1378 1378 1380 1383 1388 1392 1396 1399 1402 1404 1405 1406 1406 1405 1403 1400 1398 1395 1392 1389 1385 1382 1377 1372 1367 1362 1358 1353 1347 1341 1334 1329 1324 1320 1316 1312 1308 1305
1386 1381 1377 1373 1370 1369 1369 1370 1374 1378 1383 1387 1391 1394 1396 1397 1398 1398 1398 1395 1393 1390 1388 1385 1382 1378 1374 1371 1367 1361 1355 1350 1345 1340 1334 1328 1322 1316 1312 1308 1304 1302 1298
1377 1373 1369 1365 1362 1360 1360 1362 1365 1370 1374 1379 1383 1386 1388 1389 1391 1391 1390 1388 1386 1383 1381 1378 1376 1372 1369 1366 1362 1355 1349 1342 1337 1330 1325 1319 1313 1307 1303 1300 1297 1294 1292
1369 1364 1360 1356 1354 1352 1352 1353 1356 1361 1366 1370 1374 1377 1380 1382 1383 1383 1383 1382 1379 1377 1374 1371 1369 1366 1363 1360 1356 1350 1344 1338 1331 1325 1318 1311 1305 1299 1295 1292 1289 1287 1285
1360 1355 1351 1348 1346 1344 1344 1345 1348 1352 1357 1362 1366 1369 1371 1374 1375 1376 1376 1375 1374 1371 1368 1366 1363 1361 1358 1354 1350 1344 1340 1334 1327 1320 1313 1306 1299 1293 1288 1285 1282 1280 1278
1352 1347 1343 1339 1337 1336 1336 1337 1340 1343 1348 1352 1357 1360 1363 1366 1368 1369 1369 1368 1367 1366 1363 1361 1359 1356 1352 1348 1344 1340 1335 1328 1322 1315 1309 1302 1295 1288 1282 1278 1275 1273 1271
1344 1339 1335 1332 1329 1328 1328 1329 1331 1334 1338 1343 1348 1352 1356 1358 1360 1362 1362 1362 1361 1360 1358 1356 1354 1351 1348 1344 1340 1335 1330 1325 1319 1312 1305 1298 1290 1284 1278 1274 1270 1267 1264
1336 1332 1328 1324 1322 1321 1321 1322 1323 1326 1331 1336 1340 1345 1348 1351 1354 1355 1356 1356 1355 1354 1352 1350 1349 1346 1343 1340 1336 1331 1326 1321 1315 1309 1302 1294 1287 1280 1275 1270 1266 1263 1260
1329 1325 1321 1318 1316 1314 1315 1315 1317 1320 1325 1330 1335 1339 1342 1345 1347 1349 1350 1350 1350 1349 1348 1346 1344 1342 1339 1335 1331 1327 1323 1318 1312 1306 1299 1292 1285 1278 1272 1267 1263 1259 1256
1324 1319 1315 1311 1309 1308 1308 1308 1310 1313 1317 1322 1327 1332 1335 1338 1341 1343 1344 1345 1345 1345 1343 1342 1340 1338 1336 1333 1329 1325 1320 1315 1310 1304 1297 1290 1283 1276 1270 1264 1260 1256 1252
1318 1313 1309 1306 1303 1302 1302 1303 1304 1306 1310 1313 1319 1324 1328 1332 1335 1337 1339 1340 1340 1339 1338 1338 1336 1335 1332 1330 1326 1322 1318 1313 1308 1302 1295 1289 1282 1275 1269 1263 1258 1253 1249
1313 1308 1304 1300 1298 1297 1297 1297 1299 1300 1303 1307 1312 1318 1322 1326 1329 1332 1333 1334 1334 1335 1334 1333 1333 1331 1329 1327 1324 1320 1316 1311 1306 1300 1294 1287 1281 1274 1267 1261 1256 1251 1247
1307 1303 1298 1295 1292 1291 1291 1292 1293 1294 1297 1301 1305 1311 1316 1320 1323 1325 1327 1329 1330 1330 1330 1329 1329 1328 1326 1324 1322 1318 1314 1310 1304 1299 1293 1286 1280 1273 1266 1260 1254 1249 1244
1302 1298 1294 1290 1287 1286 1285 1286 1287 1289 1292 1295 1299 1304 1309 1313 1316 1320 1322 1324 1325 1326 1326 1326 1325 1325 1324 1322 1319 1316 1312 1308 1303 1298 1292 1286 1279 1272 1266 1260 1254 1248 1243
1297 1293 1289 1285 1282 1280 1280 1281 1282 1284 1287 1290 1294 1299 1304 1307 1311 1315 1317 1320 1321 1322 1322 1322 1322 1322 1321 1319 1317 1314 1310 1306 1302 1297 1291 1285 1279 1272 1266 1259 1253 1247 1242
1292 1287 1284 1280 1277 1276 1275 1275 1277 1279 1282 1285 1289 1294 1298 1302 1306 1310 1313 1315 1317 1318 1318 1318 1318 1318 1318 1317 1315 1312 1309 1305 1301 1296 1291 1285 1279 1272 1266 1259 1253 1247 1241
1286 1282 1278 1274 1272 1270 1270 1270 1272 1274 1276 1280 1284 1289 1293 1297 1302 1306 1309 1311 1313 1314 1314 1315 1315 1315 1315 1314 1313 1311 1308 1305 1301 1296 1291 1285 1280 1273 1266 1260 1254 1248 1242
1279 1275 1272 1268 1266 1264 1264 1265 1266 1269 1272 1275 1279 1284 1289 1293 1298 1302 1305 1308 1309 1310 1311 1312 1312 1312 1313 1312 1311 1309 1307 1304 1300 1296 1291 1286 1280 1274 1268 1261 1255 1249 1243
1273 1268 1265 1261 1259 1258 1258 1259 1261 1264 1267 1270 1274 1279 1285 1290 1294 1298 1302 1304 1306 1307 1308 1309 1309 1310 1310 1310 1309 1308 1306 1303 1299 1295 1291 1286 1281 1275 1269 1263 1257 1251 1246